Lapse_Rate
4.3 5.0 6.1 6.3 6.3 6.2 6.4 6.2 5.8 6.0 6.1 6.2 6.3 6.3 6.2 6.3 6.3 6.2 6.3 6.3 6.2 6.4 6.7 7.2 7.1 7.2 7.0 7.0 6.8 6.5 6.3 6.3 6.2 5.9 6.0 6.4 6.5 6.5 6.5 6.7 7.2 6.9 7.6
4.3 5.3 5.9 6.3 6.4 6.3 6.1 5.9 5.8 6.1 6.2 6.2 6.3 6.4 6.4 6.2 6.3 6.5 6.4 6.3 6.4 6.9 6.8 6.8 7.1 6.9 7.1 6.9 6.7 6.6 6.5 6.3 6.2 6.0 5.9 5.9 6.5 7.2 7.5 7.6 7.8 7.7 8.7
4.9 5.8 6.0 6.1 5.8 5.9 5.9 6.0 6.0 6.0 6.0 6.1 6.3 6.3 6.3 6.5 6.4 6.5 6.4 6.4 6.6 6.8 7.0 7.0 7.1 7.1 7.1 6.9 6.8 6.7 6.5 5.9 5.7 5.9 7.0 8.0 8.4 8.4 7.7 7.1 7.6 7.9 7.7
5.1 5.6 5.8 5.9 5.9 6.0 6.1 6.2 6.1 6.1 6.4 6.5 6.0 6.1 6.3 6.3 6.3 6.3 6.3 6.4 6.4 6.6 6.4 6.7 6.9 6.7 6.9 6.9 7.2 6.8 6.4 5.5 4.5 5.0 6.1 8.4 9.3 7.9 8.1 7.5 6.7 7.0 7.4
5.0 5.4 5.8 6.0 6.0 6.0 5.8 6.1 5.7 5.4 5.3 5.7 6.1 6.0 6.1 6.5 6.7 6.2 6.1 5.7 5.8 6.0 6.3 6.2 6.4 6.6 6.7 6.8 6.6 6.4 5.8 4.9 4.2 3.9 4.6 6.7 8.1 8.8 7.4 6.3 6.8 7.2 6.9
4.9 5.4 5.8 6.0 6.0 6.1 5.8 5.9 6.1 5.9 4.9 5.4 5.9 6.1 6.2 6.1 6.1 5.9 5.8 5.7 5.7 6.0 6.4 6.5 6.9 6.7 6.8 6.6 6.5 6.1 5.3 4.5 3.9 4.0 4.5 6.4 7.6 8.9 8.5 7.3 7.0 6.7 6.3
4.4 5.1 5.7 5.8 6.0 6.3 5.3 6.0 5.7 5.2 5.4 5.8 6.1 6.4 6.3 6.1 5.9 5.6 5.3 5.3 5.7 6.0 6.4 6.8 7.4 6.8 6.6 6.6 6.5 5.9 5.0 4.2 3.9 3.9 4.5 6.2 7.8 7.8 6.9 6.4 5.8 5.8 5.4
4.4 5.0 5.8 5.8 6.1 6.2 5.9 6.2 5.8 5.6 5.8 6.1 6.6 6.2 5.9 6.0 5.9 5.6 5.4 5.6 6.1 6.4 6.6 6.7 7.2 7.0 6.7 6.6 6.0 5.7 5.0 4.2 3.8 3.7 4.9 6.0 7.8 7.0 6.7 5.6 5.4 5.3 5.2
4.8 4.8 5.3 5.6 6.0 6.2 6.3 6.2 5.9 5.8 5.8 5.9 6.0 6.2 5.4 5.6 5.8 5.9 5.9 6.2 6.2 6.0 6.3 6.5 6.8 6.9 6.7 6.2 5.7 4.9 4.4 4.4 3.8 4.1 4.8 5.6 6.6 7.0 6.5 5.8 5.6 5.4 5.1
4.3 4.2 4.2 4.8 5.2 5.6 5.9 6.3 6.4 6.0 5.9 5.1 4.7 4.5 4.4 4.6 4.7 5.0 5.6 5.9 5.8 5.9 6.3 6.2 6.4 6.9 6.6 5.8 5.1 4.5 4.7 4.3 3.9 4.0 4.8 6.0 6.7 7.6 6.7 6.7 6.7 6.0 5.3
4.8 4.6 4.3 4.3 4.7 5.0 5.5 6.4 7.1 7.0 5.4 4.8 4.3 4.3 4.0 3.9 4.3 4.8 5.2 5.4 5.5 5.6 6.0 6.3 6.2 6.3 5.7 5.8 5.6 5.1 4.3 3.6 3.6 3.9 5.6 6.8 7.5 7.3 7.2 6.9 6.6 5.8 5.1
4.8 4.7 4.3 4.6 5.1 6.1 6.4 6.4 6.4 5.9 5.1 4.2 4.1 4.0 4.0 4.5 4.7 4.8 5.1 5.5 5.7 5.6 5.8 5.9 6.0 6.4 6.0 5.2 5.0 4.6 3.6 3.6 3.6 3.8 6.6 7.8 7.2 7.9 7.1 6.4 5.4 5.0 4.5
5.1 5.8 4.8 6.1 6.4 6.6 6.0 5.8 5.5 5.2 4.1 4.0 4.5 4.3 4.1 4.0 4.4 4.6 4.8 5.3 5.5 5.9 5.7 6.1 6.0 6.2 5.7 5.4 4.6 3.7 3.4 3.1 3.4 4.1 5.6 7.2 8.2 8.2 5.9 4.9 4.7 4.3 3.9
5.4 5.1 5.7 7.8 7.5 6.5 5.7 5.4 5.0 4.2 3.9 3.7 4.4 4.6 4.1 3.5 3.7 3.9 4.5 4.9 5.3 5.3 5.0 5.2 5.2 5.3 5.3 4.9 4.4 3.4 3.0 2.6 3.1 3.6 4.5 4.9 5.5 5.4 5.1 4.8 4.5 4.1 3.9
5.1 5.8 6.7 7.3 7.0 5.7 4.8 5.0 4.9 4.3 4.1 4.6 4.7 5.4 5.1 3.8 3.4 4.2 4.1 4.6 4.7 5.0 4.9 4.3 4.6 4.7 4.5 4.1 3.9 3.2 2.4 2.2 2.6 2.9 3.4 4.5 4.6 4.8 4.9 4.7 4.5 4.4 4.0
5.3 5.6 7.2 6.6 5.8 5.7 4.9 5.4 5.0 5.0 5.2 5.2 5.6 6.0 6.0 5.4 4.5 4.4 4.0 4.1 4.2 5.1 4.8 4.9 4.2 3.7 3.5 4.1 3.1 3.1 2.4 2.2 2.2 2.5 3.0 3.4 3.8 4.1 4.2 4.3 4.4 4.4 4.2
5.4 5.4 6.5 6.4 5.8 5.5 6.4 5.7 5.5 5.2 5.6 5.2 5.7 6.2 6.3 6.2 5.7 5.0 4.2 4.1 4.8 5.2 5.0 4.7 3.9 3.8 3.1 4.0 2.8 2.9 2.6 2.1 1.9 2.1 2.5 2.8 2.9 3.1 3.6 3.9 3.9 3.8 3.9
5.4 5.7 6.6 7.3 6.0 5.9 6.0 6.4 6.4 6.1 5.8 5.8 6.0 6.4 6.9 6.8 6.5 5.4 4.7 4.6 4.9 4.8 4.4 3.4 2.6 1.6 2.0 2.3 1.6 1.9 1.8 2.2 2.1 2.3 2.4 2.2 2.1 2.3 2.8 3.0 3.0 3.2 3.4
5.8 6.2 6.0 6.7 5.9 5.8 6.0 6.4 6.7 6.4 6.1 5.9 6.3 6.7 7.1 7.0 6.4 5.7 5.0 4.7 4.8 4.3 3.7 3.7 2.2 2.2 1.7 1.6 2.1 0.7 1.6 1.9 2.5 2.5 2.0 1.9 1.6 1.7 2.0 2.1 1.9 2.3 2.7
6.4 6.8 6.5 6.2 5.9 6.0 6.0 6.6 6.4 6.3 6.1 6.2 6.1 6.6 7.0 7.0 6.6 5.9 5.2 4.6 4.5 3.3 2.4 2.9 2.4 1.6 1.5 1.7 3.5 2.1 1.5 2.4 2.9 2.4 2.3 2.2 1.7 1.5 1.3 1.1 0.9 1.2 1.9
5.7 6.5 6.7 6.5 6.6 6.6 6.4 6.0 6.1 5.9 5.3 5.5 5.9 6.8 7.1 6.9 6.6 6.0 5.2 4.6 4.2 2.7 2.5 2.5 1.9 2.3 1.6 1.6 2.0 2.4 2.4 2.3 2.4 2.4 2.7 2.2 1.7 1.3 1.1 0.8 0.5 0.3 0.3
5.6 6.3 6.3 6.2 6.4 7.1 6.9 5.6 5.7 4.8 3.5 4.0 5.3 5.9 6.9 6.9 6.6 6.0 5.2 4.3 4.0 2.4 2.3 2.5 2.7 1.8 1.9 1.3 2.5 2.0 4.4 4.4 3.4 2.8 2.2 2.1 1.3 1.5 0.9 0.8 0.7 0.3 0.3
5.8 6.1 6.2 6.4 6.0 6.5 6.8 4.9 3.6 3.5 3.3 3.8 3.7 3.9 5.2 6.8 6.5 6.4 5.6 4.6 3.8 3.3 2.2 2.2 2.3 2.6 1.6 1.3 1.9 2.0 2.3 2.7 3.0 2.5 2.4 1.4 0.9 0.7 0.7 1.2 0.8 0.7 0.5
4.9 5.5 6.2 6.1 6.0 6.1 5.9 5.9 4.9 5.5 4.1 3.6 3.5 3.5 4.3 6.1 5.9 6.1 5.6 5.0 4.1 3.3 2.1 1.7 2.1 1.8 1.6 1.9 1.4 1.9 1.6 1.5 2.9 3.3 2.5 1.8 0.9 1.1 0.2 1.1 0.5 0.4 0.6
4.7 4.2 5.0 5.9 6.1 6.3 5.4 5.8 6.0 5.5 4.1 3.0 3.2 3.7 3.4 4.6 5.9 6.1 5.5 4.4 3.5 3.1 2.7 2.1 1.1 1.0 0.8 1.0 1.3 1.0 1.3 0.6 0.7 1.0 1.7 1.5 1.2 0.6 0.5 0.6 0.4 0.4 0.4
4.4 4.2 4.2 4.5 5.4 6.5 5.9 5.5 6.1 5.5 3.6 3.1 3.2 2.9 2.6 3.0 3.7 5.2 5.1 4.4 4.0 3.1 1.9 1.7 1.6 0.5 0.1 0.2 -0.1 0.2 0.9 1.4 0.6 0.4 0.1 -0.1 1.3 1.2 -0.0 -0.1 -0.0 0.4 0.5
Wind_Speed
4 12 14 16 16 17 18 18 20 20 21 22 21 22 21 21 22 22 22 23 23 25 26 28 29 29 29 29 28 29 29 28 28 28 27 27 27 26 25 24 23 24 25
10 14 17 17 18 18 18 20 20 20 21 21 22 23 22 21 21 21 22 23 24 25 26 26 26 25 25 25 26 26 26 25 24 23 23 25 23 24 23 22 21 23 24
11 14 16 19 20 20 20 20 21 22 21 21 22 23 22 22 22 21 22 23 24 24 26 26 26 23 23 25 25 25 26 25 21 20 20 19 19 22 23 23 23 24 24
14 13 16 20 20 21 21 22 22 22 23 23 22 22 22 22 23 24 24 24 24 25 25 25 23 23 22 23 24 26 26 25 23 23 17 17 18 22 23 24 24 24 24
12 14 19 22 22 21 21 23 24 24 26 24 20 22 23 24 22 24 24 25 24 22 22 22 22 21 20 23 25 25 26 23 23 20 21 21 17 22 23 23 23 24 24
11 16 20 22 21 22 23 23 24 24 28 25 24 23 23 24 23 23 23 23 22 20 20 20 20 21 21 25 25 24 24 22 24 22 20 18 18 22 22 23 23 23 23
10 15 20 22 23 22 26 23 23 25 26 24 25 23 23 23 23 22 23 22 21 20 20 19 20 24 24 25 23 22 22 23 22 20 19 18 19 22 22 22 22 21 21
12 14 20 23 21 23 25 25 25 25 24 23 24 23 23 22 22 21 22 21 20 19 18 18 20 24 25 24 23 22 22 22 21 19 17 17 19 21 21 21 21 20 20
14 15 14 18 20 21 22 23 25 24 23 22 22 23 22 22 21 20 20 20 18 18 16 16 18 20 22 22 22 22 23 22 19 17 14 16 20 21 21 21 20 20 20
9 10 11 13 17 17 18 25 25 24 24 23 23 23 22 21 19 18 19 19 17 16 13 13 16 17 19 23 22 23 24 21 18 18 16 16 20 20 20 19 20 20 20
8 7 10 12 15 17 17 23 24 26 25 23 22 21 20 18 18 19 18 17 15 15 12 11 15 18 21 25 22 22 21 19 16 16 15 17 19 19 19 19 19 19 19
10 7 6 11 13 15 14 15 16 19 19 19 17 18 18 18 17 17 17 16 15 14 12 10 10 11 19 19 17 17 16 19 17 14 15 17 18 17 18 19 18 19 19
12 8 7 10 13 12 10 15 16 17 16 16 13 17 16 16 16 15 14 12 13 11 9 9 10 10 15 17 17 16 17 18 18 17 17 17 16 17 18 18 18 18 18
12 9 8 10 9 11 15 13 15 13 14 10 15 15 16 12 11 11 10 9 8 6 8 8 10 11 16 18 19 16 17 17 17 17 19 19 17 17 17 17 17 17 17
12 11 12 11 8 11 11 12 13 11 11 13 14 14 16 12 9 7 5 5 7 8 9 8 10 12 15 16 17 18 15 16 18 19 19 19 17 16 16 17 16 16 16
15 14 12 9 11 12 9 10 10 13 14 15 14 15 12 12 9 8 8 8 10 11 11 12 11 12 11 15 13 15 14 16 18 18 19 17 16 16 16 16 15 16 16
13 15 13 9 14 11 11 12 13 15 14 13 12 15 14 17 15 14 11 8 9 10 12 12 10 11 9 10 9 12 14 15 16 17 17 16 17 17 15 15 15 16 17
16 15 14 10 10 12 9 9 12 14 14 14 14 15 15 16 17 14 9 7 8 9 10 8 6 4 4 4 4 5 11 14 15 14 14 13 14 15 14 14 15 15 15
16 15 12 11 10 10 9 9 12 13 12 14 13 13 14 16 15 16 11 9 10 9 8 6 2 3 3 3 4 4 7 8 11 10 10 11 12 13 13 13 15 15 15
16 15 13 10 10 7 7 7 8 9 8 13 15 13 16 18 17 16 11 10 10 8 4 3 4 3 3 4 5 4 3 5 9 9 11 11 11 11 10 12 14 14 14
13 16 16 14 12 8 4 4 4 4 3 3 12 18 18 16 16 14 13 10 9 4 4 5 3 4 3 2 4 3 4 3 3 4 8 9 10 10 12 12 12 13 14
15 17 15 16 13 9 7 3 3 3 1 2 10 14 20 16 15 15 14 8 9 4 5 4 4 3 2 2 3 2 2 2 1 1 3 5 8 9 10 11 11 12 13
14 16 15 15 15 13 11 4 3 4 3 2 1 3 10 19 16 17 16 12 10 7 4 4 5 5 4 2 3 4 2 4 2 1 2 2 5 5 8 10 10 11 12
15 15 15 14 15 13 12 10 7 6 4 4 4 3 7 17 17 18 16 14 12 8 5 5 6 4 4 4 0 1 1 4 3 1 1 1 2 3 6 7 9 9 11
13 13 13 14 15 12 11 11 9 8 4 3 3 6 5 9 16 18 17 15 10 9 8 7 5 5 4 4 3 2 1 1 1 3 3 2 1 1 4 7 7 7 10
13 12 11 12 12 14 13 13 14 13 8 5 5 4 4 4 6 13 17 16 14 11 8 7 7 6 5 4 4 4 4 3 3 3 2 1 2 1 2 6 6 5 9
Wind_Direction
188 156 156 149 142 136 124 120 113 116 111 109 109 107 105 103 103 99 99 98 98 97 95 95 93 92 90 87 85 83 80 78 76 73 70 68 67 66 64 61 62 60 66
142 151 150 147 140 133 125 117 116 116 111 111 110 107 105 103 102 104 103 100 98 98 95 94 92 90 91 89 90 87 85 79 75 74 70 73 75 75 74 71 72 72 71
124 133 144 144 134 128 125 122 118 113 111 109 108 107 107 106 103 102 102 101 98 98 98 94 86 84 96 100 93 90 85 77 65 62 79 74 78 77 75 72 74 75 75
125 134 137 136 129 127 128 125 118 111 106 103 105 107 106 104 101 98 97 97 95 94 94 92 87 84 93 91 90 86 83 77 69 71 69 77 75 74 76 78 75 71 71
120 127 134 134 127 121 116 116 111 112 107 101 101 107 106 103 101 98 97 94 93 94 96 93 84 79 83 94 91 88 84 76 75 67 70 68 75 80 77 75 72 72 72
117 127 133 130 124 123 117 116 118 113 105 112 116 109 104 103 102 102 101 96 95 97 95 91 85 72 86 98 93 89 87 79 75 75 74 74 77 80 78 76 75 73 72
111 120 127 124 123 124 117 121 116 105 107 113 113 109 110 108 106 106 103 100 97 95 94 91 84 74 91 101 97 95 90 84 78 73 75 77 81 80 78 76 74 72 70
118 122 126 124 121 120 118 120 114 110 111 110 112 112 110 110 107 105 103 100 101 97 93 90 87 83 87 99 100 98 91 86 80 76 76 79 82 81 78 75 73 71 69
115 113 119 122 121 116 114 115 111 110 105 99 100 106 108 108 109 109 107 106 102 97 92 91 87 84 85 104 104 99 93 90 83 79 73 77 80 79 78 76 74 70 67
108 108 109 112 114 112 113 110 108 107 105 101 100 99 97 97 98 99 107 109 107 102 96 85 81 75 79 110 107 99 97 91 86 81 79 81 81 80 78 77 75 70 65
108 114 112 108 109 109 110 115 111 110 108 109 108 110 107 103 106 109 111 114 113 108 99 84 80 67 80 117 108 104 98 92 86 84 86 85 84 81 80 76 72 68 65
135 135 126 117 121 119 116 107 106 115 119 118 117 114 116 119 117 118 118 118 115 107 97 81 71 63 95 111 106 104 101 93 79 72 91 89 85 87 83 76 72 68 65
145 141 134 136 128 118 109 110 116 127 127 125 123 126 128 126 122 117 114 115 112 111 100 97 86 82 97 120 113 105 103 95 86 74 75 91 95 87 77 76 73 72 66
151 144 130 127 112 109 122 126 133 131 140 151 150 142 136 130 126 124 124 125 119 115 110 108 97 96 92 119 117 109 108 105 96 85 80 79 81 82 81 80 78 72 68
151 151 140 155 135 140 133 144 146 156 159 158 156 155 148 143 142 135 133 141 129 121 129 112 104 98 97 108 118 116 115 112 105 95 85 81 80 83 83 81 78 74 70
159 155 154 151 152 158 154 165 164 169 168 164 159 160 164 168 161 143 133 126 125 133 124 125 119 109 100 110 116 122 123 118 110 102 96 87 82 86 85 82 78 73 67
163 157 158 149 163 173 175 168 159 168 167 157 170 168 162 151 151 142 131 125 127 123 121 117 107 109 103 103 107 126 123 118 112 108 104 98 93 85 85 83 78 72 63
158 158 158 167 176 179 172 160 157 161 168 163 163 167 156 155 148 145 140 140 139 133 125 112 112 83 97 105 110 118 119 120 122 120 113 106 102 93 88 85 75 69 62
156 157 158 169 172 176 177 158 160 162 168 165 164 172 168 162 159 153 151 150 143 131 125 132 95 122 120 106 103 95 110 125 131 128 128 115 109 108 101 87 75 66 58
158 159 164 174 178 177 168 150 148 156 162 164 167 169 166 165 166 157 154 152 149 133 128 117 124 70 124 123 91 80 78 110 127 128 127 120 127 123 116 95 83 68 57
169 166 172 176 185 179 161 155 160 164 161 167 170 169 168 168 169 164 156 153 157 144 160 145 103 109 64 127 102 56 41 41 79 117 135 129 128 129 117 104 92 72 61
172 168 177 179 180 182 174 151 145 142 171 170 178 177 171 172 167 173 154 165 168 139 153 156 137 120 110 189 126 99 129 340 8 194 147 150 145 140 121 111 94 75 66
178 178 178 181 184 179 179 135 86 78 69 84 168 188 194 174 169 173 165 165 161 155 160 172 160 150 152 217 208 142 122 208 150 263 199 193 160 140 127 122 99 80 66
186 178 180 176 179 180 173 179 170 190 166 200 176 182 196 179 169 174 174 173 173 175 170 172 174 163 139 172 162 202 99 153 169 191 269 199 154 150 153 134 113 92 64
183 184 185 182 177 184 182 186 188 190 181 168 169 174 197 187 169 177 180 176 175 179 181 175 168 173 174 159 164 160 165 78 109 136 189 205 36 128 146 135 116 88 56
189 184 182 190 199 184 188 192 194 191 184 171 185 194 202 195 169 183 181 179 183 178 178 186 186 181 185 180 175 182 171 170 191 148 124 151 168 150 97 110 110 80 56